FW5819 Weather Reports


Display with metric or nautical units.
time (UTC)temp
F
wind
direction
speed
MPH
gust
MPH
rain 1hr
in
rain 24hr
in
rain mn
in
humidity
%
barometer
mb
20260507180039 54 260 3.0 10.0 0.00 0.00 0.00 61 1012.6
20260507174542 54 291 2.0 9.0 0.00 0.00 0.00 60 1012.8
20260507173037 55 23 2.0 10.0 0.00 0.00 0.00 59 1013.0
20260507171545 55 327 4.0 11.0 0.00 0.00 0.00 65 1013.0
20260507170040 54 226 4.0 11.0 0.00 0.00 0.00 64 1013.2
20260507164533 54 291 3.0 11.0 0.00 0.00 0.00 61 1013.0
20260507163041 54 296 2.0 9.0 0.00 0.00 0.00 62 1013.0
20260507161546 54 61 1.0 10.0 0.00 0.00 0.00 64 1013.0
20260507160035 54 340 3.0 9.0 0.00 0.00 0.00 63 1013.1
20260507154538 54 10 4.0 10.0 0.00 0.00 0.00 66 1013.1
20260507153043 53 311 3.0 11.0 0.00 0.00 0.00 65 1013.1
20260507151533 54 15 3.0 6.0 0.00 0.00 0.00 64 1013.2
20260507150032 53 38 3.0 8.0 0.00 0.00 0.00 67 1013.1
20260507144534 54 316 2.0 6.0 0.00 0.00 0.00 66 1013.3
20260507143034 53 250 2.0 5.0 0.00 0.00 0.00 71 1013.1
20260507141534 53 214 2.0 7.0 0.00 0.00 0.00 72 1013.2
20260507140039 53 289 2.0 8.0 0.00 0.00 0.00 72 1013.3
20260507134538 53 267 1.0 4.0 0.00 0.00 0.00 73 1013.4
20260507133035 52 263 2.0 4.0 0.00 0.00 0.00 73 1013.4
20260507131537 51 190 2.0 4.0 0.00 0.00 0.00 75 1013.4
20260507130040 49 9 2.0 6.0 0.00 0.00 0.00 75 1013.4
20260507124534 48 0 1.0 4.0 0.00 0.00 0.00 79 1013.5
20260507123035 46 205 1.0 5.0 0.00 0.00 0.00 80 1013.4
20260507121535 46 218 1.0 2.0 0.00 0.00 0.00 82 1013.3
20260507120040 45 280 0.0 4.0 0.00 0.00 0.00 82 1013.2
20260507114539 44 253 2.0 4.0 0.00 0.00 0.00 83 1013.2
20260507113039 43 238 1.0 6.0 0.00 0.00 0.00 84 1013.2
20260507111535 42 0 0.0 1.0 0.00 0.00 0.00 85 1013.1
20260507110036 42 301 1.0 6.0 0.00 0.00 0.00 86 1013.2
20260507104538 41 157 0.0 3.0 0.00 0.00 0.00 86 1012.8
20260507103040 41 0 0.0 3.0 0.00 0.00 0.00 86 1012.5
20260507101534 41 184 0.0 1.0 0.00 0.00 0.00 86 1012.5
20260507100035 41 0 0.0 1.0 0.00 0.00 0.00 85 1012.5
20260507094536 42 181 0.0 1.0 0.00 0.01 0.00 85 1012.5
20260507093032 42 200 0.0 2.0 0.00 0.01 0.00 85 1012.5
20260507091535 41 0 0.0 2.0 0.00 0.01 0.00 85 1012.6
20260507090034 41 128 0.0 1.0 0.00 0.01 0.00 85 1012.8
20260507084533 42 0 0.0 2.0 0.00 0.03 0.00 85 1012.7
20260507083036 42 166 0.0 1.0 0.00 0.03 0.00 86 1012.7
20260507081536 42 0 0.0 3.0 0.00 0.03 0.00 87 1012.8
20260507080041 41 165 0.0 2.0 0.00 0.03 0.00 87 1012.9
20260507074532 41 200 0.0 2.0 0.00 0.09 0.00 88 1012.8
20260507073037 41 0 0.0 1.0 0.00 0.09 0.00 88 1012.8
20260507071559 41 0 0.0 0.0 0.00 0.09 0.00 88 1012.8
20260507070037 41 0 0.0 1.0 0.00 0.09 0.00 88 1012.9
20260507064532 41 0 0.0 1.0 0.00 0.11 0.00 89 1013.1
20260507063037 41 205 0.0 1.0 0.00 0.11 0.00 89 1013.1
20260507061534 40 0 0.0 1.0 0.00 0.11 0.00 90 1013.3
20260507060038 39 0 0.0 0.0 0.00 0.11 0.00 89 1013.3
20260507054536 40 0 0.0 0.0 0.00 0.14 0.00 88 1013.4
20260507053052 40 0 0.0 0.0 0.00 0.14 0.00 88 1013.4
20260507051542 41 0 0.0 0.0 0.00 0.14 0.00 87 1013.5
20260507050036 41 0 0.0 0.0 0.00 0.14 0.00 87 1013.5
20260507044537 42 0 0.0 0.0 0.00 0.16 0.00 86 1013.7
20260507043037 43 0 0.0 0.0 0.00 0.16 0.00 86 1013.7
20260507041537 43 0 0.0 0.0 0.00 0.16 0.00 87 1013.7
20260507040045 44 0 0.0 0.0 0.00 0.16 0.00 87 1013.9
20260507034538 44 0 0.0 0.0 0.00 0.21 0.16 87 1013.9
20260507033044 44 0 0.0 0.0 0.00 0.21 0.16 87 1014.0
20260507031537 43 0 0.0 1.0 0.00 0.21 0.16 87 1014.2
20260507030035 43 0 0.0 0.0 0.00 0.21 0.16 87 1014.2
20260507024539 43 0 0.0 0.0 0.00 0.35 0.16 86 1014.2
20260507023036 43 0 0.0 0.0 0.00 0.35 0.16 86 1014.3
20260507021534 43 0 0.0 0.0 0.00 0.35 0.16 85 1014.1
20260507020037 43 0 0.0 0.0 0.00 0.35 0.16 84 1013.9
20260507014547 43 0 0.0 0.0 0.00 0.41 0.16 83 1013.9
20260507013035 43 0 0.0 0.0 0.00 0.41 0.16 82 1013.8
20260507011538 44 0 0.0 0.0 0.00 0.41 0.16 80 1013.7
20260507010036 45 0 0.0 0.0 0.00 0.41 0.16 78 1013.5
20260507004538 46 0 0.0 0.0 0.00 0.46 0.16 77 1013.6
20260507003034 48 0 0.0 0.0 0.00 0.46 0.16 74 1013.5
20260507001543 49 0 0.0 0.0 0.00 0.46 0.16 72 1013.5
20260507000037 49 0 0.0 0.0 0.00 0.46 0.16 71 1013.5
20260506234535 50 0 0.0 0.0 0.00 0.52 0.16 70 1013.5
20260506233036 50 0 0.0 0.0 0.00 0.52 0.16 71 1013.6
20260506231539 50 0 0.0 1.0 0.00 0.52 0.16 71 1013.5
20260506230037 50 0 0.0 1.0 0.00 0.52 0.16 71 1013.4
20260506224536 50 40 2.0 4.0 0.00 0.66 0.16 73 1013.5
20260506223035 50 61 0.0 4.0 0.00 0.66 0.16 71 1013.5
20260506221532 51 28 1.0 5.0 0.00 0.66 0.16 71 1013.5
20260506220041 51 39 1.0 3.0 0.00 0.66 0.16 70 1013.3
20260506214543 51 343 1.0 4.0 0.00 0.80 0.16 69 1013.2
20260506213035 52 28 1.0 5.0 0.00 0.80 0.16 67 1012.9
20260506211537 53 17 2.0 5.0 0.00 0.80 0.16 67 1012.6
20260506210041 53 327 1.0 4.0 0.00 0.80 0.16 65 1012.5
20260506204534 53 316 1.0 4.0 0.00 0.92 0.16 68 1012.4
20260506203037 53 36 3.0 7.0 0.00 0.92 0.16 69 1012.5
20260506201536 53 15 3.0 9.0 0.00 0.92 0.16 68 1012.6
20260506200035 53 336 2.0 5.0 0.00 0.92 0.16 67 1012.5
20260506194535 54 38 3.0 9.0 0.00 1.13 0.16 65 1012.4
20260506193034 54 340 3.0 8.0 0.00 1.13 0.16 63 1012.6
20260506191532 55 256 4.0 8.0 0.00 1.13 0.16 64 1012.3
20260506190037 54 284 2.0 10.0 0.00 1.13 0.16 67 1012.4
20260506184535 54 38 4.0 9.0 0.00 1.17 0.16 68 1012.4
20260506183035 54 338 3.0 6.0 0.00 1.17 0.16 74 1012.8
20260506181544 53 32 2.0 9.0 0.00 1.17 0.16 76 1012.8